If you wish to contribute or participate in the discussions about articles you are invited to join SKYbrary as a registered user

 Actions

Landivisiau Air Base

From SKYbrary Wiki

LFRJ
Airport
ICAO: LFRJ
Summary
Name Landivisiau Air Base
Region Europe
Territory France FR.gif
Location , Bretagne
Serving Landivisiau
Elevation 106.07 m
348 ft
348 ft106.07 m
Type medium airport
Coordinates 48° 31' 48.93" N, 4° 9' 5.91" W
Runways
Designator Length Width Surface ROPS
8/26 2700 m8,858.268 ft
45 m147.638 ft
CON /


METAR
Observation LFRJ 240100Z AUTO 32005KT 290V010 6000 BKN007 BKN026 OVC092 11/11 Q1006
Station Landivisiau
Date/Time 24 October 2019 01:00:00
Wind direction 320°
Wind speed 05 kts
Lowest cloud amount broken clouds
Temperature 11°C
Dew point 11°C
Humidity 100%
QNH 1006 hPa
Weather condition n/a